Year,Month,Day,Hour,Minute,Value (Times are PST for temperature in C)
2015,07,23,00,00,13.60
2015,07,23,00,01,13.50
2015,07,23,00,02,13.50
2015,07,23,00,03,13.40
2015,07,23,00,04,13.40
2015,07,23,00,05,13.40
2015,07,23,00,06,13.50
2015,07,23,00,07,13.50
2015,07,23,00,08,13.60
2015,07,23,00,09,13.60
2015,07,23,00,10,13.70
2015,07,23,00,11,13.70
2015,07,23,00,12,13.80
2015,07,23,00,13,13.80
2015,07,23,00,14,13.80
2015,07,23,00,15,13.80
2015,07,23,00,16,13.80
2015,07,23,00,17,13.90
2015,07,23,00,18,13.90
2015,07,23,00,19,13.90
2015,07,23,00,20,13.90
2015,07,23,00,21,13.90
2015,07,23,00,22,13.80
2015,07,23,00,23,13.80
2015,07,23,00,24,13.80
2015,07,23,00,25,13.80
2015,07,23,00,26,13.80
2015,07,23,00,27,13.80
2015,07,23,00,28,13.80
2015,07,23,00,29,13.80
2015,07,23,00,30,13.80
2015,07,23,00,31,13.80
2015,07,23,00,32,13.70
2015,07,23,00,33,13.70
2015,07,23,00,34,13.70
2015,07,23,00,35,13.70
2015,07,23,00,36,13.60
2015,07,23,00,37,13.60
2015,07,23,00,38,13.60
2015,07,23,00,39,13.60
2015,07,23,00,40,13.60
2015,07,23,00,41,13.60
2015,07,23,00,42,13.60
2015,07,23,00,43,13.60
2015,07,23,00,44,13.50
2015,07,23,00,45,13.50
2015,07,23,00,46,13.50
2015,07,23,00,47,13.50
2015,07,23,00,48,13.50
2015,07,23,00,49,13.60
2015,07,23,00,50,13.60
2015,07,23,00,51,13.60
2015,07,23,00,52,13.70
2015,07,23,00,53,13.70
2015,07,23,00,54,13.70
2015,07,23,00,55,13.70
2015,07,23,00,56,13.70
2015,07,23,00,57,13.80
2015,07,23,00,58,13.80
2015,07,23,00,59,13.70
2015,07,23,01,00,13.80
2015,07,23,01,01,13.80
2015,07,23,01,02,13.80
2015,07,23,01,03,13.80
2015,07,23,01,04,13.80
2015,07,23,01,05,13.90
2015,07,23,01,06,13.90
2015,07,23,01,07,13.90
2015,07,23,01,08,14.00
2015,07,23,01,09,14.00
2015,07,23,01,10,14.00
2015,07,23,01,11,14.00
2015,07,23,01,12,14.00
2015,07,23,01,13,14.00
2015,07,23,01,14,14.00
2015,07,23,01,15,14.00
2015,07,23,01,16,14.00
2015,07,23,01,17,13.90
2015,07,23,01,18,13.90
2015,07,23,01,19,13.90
2015,07,23,01,20,13.90
2015,07,23,01,21,13.90
2015,07,23,01,22,13.90
2015,07,23,01,23,13.90
2015,07,23,01,24,13.90
2015,07,23,01,25,13.90
2015,07,23,01,26,13.90
2015,07,23,01,27,13.90
2015,07,23,01,28,13.80
2015,07,23,01,29,13.80
2015,07,23,01,30,13.80
2015,07,23,01,31,13.80
2015,07,23,01,32,13.70
2015,07,23,01,33,13.70
2015,07,23,01,34,13.70
2015,07,23,01,35,13.70
2015,07,23,01,36,13.60
2015,07,23,01,37,13.60
2015,07,23,01,38,13.60
2015,07,23,01,39,13.60
2015,07,23,01,40,13.50
2015,07,23,01,41,13.50
2015,07,23,01,42,13.50
2015,07,23,01,43,13.40
2015,07,23,01,44,13.40
2015,07,23,01,45,13.40
2015,07,23,01,46,13.40
2015,07,23,01,47,13.40
2015,07,23,01,48,13.40
2015,07,23,01,49,13.40
2015,07,23,01,50,13.40
2015,07,23,01,51,13.40
2015,07,23,01,52,13.40
2015,07,23,01,53,13.40
2015,07,23,01,54,13.30
2015,07,23,01,55,13.30
2015,07,23,01,56,13.30
2015,07,23,01,57,13.30
2015,07,23,01,58,13.30
2015,07,23,01,59,13.30
2015,07,23,02,00,13.30
2015,07,23,02,01,13.30
2015,07,23,02,02,13.30
2015,07,23,02,03,13.30
2015,07,23,02,04,13.30
2015,07,23,02,05,13.30
2015,07,23,02,06,13.30
2015,07,23,02,07,13.30
2015,07,23,02,08,13.30
2015,07,23,02,09,13.30
2015,07,23,02,10,13.30
2015,07,23,02,11,13.30
2015,07,23,02,12,13.30
2015,07,23,02,13,13.30
2015,07,23,02,14,13.20
2015,07,23,02,15,13.20
2015,07,23,02,16,13.20
2015,07,23,02,17,13.20
2015,07,23,02,18,13.20
2015,07,23,02,19,13.20
2015,07,23,02,20,13.20
2015,07,23,02,21,13.20
2015,07,23,02,22,13.20
2015,07,23,02,23,13.20
2015,07,23,02,24,13.30
2015,07,23,02,25,13.40
2015,07,23,02,26,13.50
2015,07,23,02,27,13.60
2015,07,23,02,28,13.60
2015,07,23,02,29,13.70
2015,07,23,02,30,13.80
2015,07,23,02,31,13.80
2015,07,23,02,32,13.80
2015,07,23,02,33,13.90
2015,07,23,02,34,13.90
2015,07,23,02,35,13.90
2015,07,23,02,36,13.90
2015,07,23,02,37,13.90
2015,07,23,02,38,13.90
2015,07,23,02,39,13.90
2015,07,23,02,40,13.90
2015,07,23,02,41,13.80
2015,07,23,02,42,13.80
2015,07,23,02,43,13.80
2015,07,23,02,44,13.80
2015,07,23,02,45,13.80
2015,07,23,02,46,13.80
2015,07,23,02,47,13.80
2015,07,23,02,48,13.80
2015,07,23,02,49,13.80
2015,07,23,02,50,13.80
2015,07,23,02,51,13.80
2015,07,23,02,52,13.80
2015,07,23,02,53,13.80
2015,07,23,02,54,13.80
2015,07,23,02,55,13.70
2015,07,23,02,56,13.70
2015,07,23,02,57,13.70
2015,07,23,02,58,13.70
2015,07,23,02,59,13.70
2015,07,23,03,00,13.60
2015,07,23,03,01,13.60
2015,07,23,03,02,13.60
2015,07,23,03,03,13.50
2015,07,23,03,04,13.40
2015,07,23,03,05,13.40
2015,07,23,03,06,13.30
2015,07,23,03,07,13.30
2015,07,23,03,08,13.20
2015,07,23,03,09,13.10
2015,07,23,03,10,13.00
2015,07,23,03,11,12.90
2015,07,23,03,12,12.90
2015,07,23,03,13,12.80
2015,07,23,03,14,12.70
2015,07,23,03,15,12.70
2015,07,23,03,16,12.60
2015,07,23,03,17,12.60
2015,07,23,03,18,12.60
2015,07,23,03,19,12.60
2015,07,23,03,20,12.50
2015,07,23,03,21,12.50
2015,07,23,03,22,12.50
2015,07,23,03,23,12.50
2015,07,23,03,24,12.40
2015,07,23,03,25,12.40
2015,07,23,03,26,12.40
2015,07,23,03,27,12.40
2015,07,23,03,28,12.40
2015,07,23,03,29,12.40
2015,07,23,03,30,12.40
2015,07,23,03,31,12.40
2015,07,23,03,32,12.40
2015,07,23,03,33,12.40
2015,07,23,03,34,12.40
2015,07,23,03,35,12.30
2015,07,23,03,36,12.30
2015,07,23,03,37,12.30
2015,07,23,03,38,12.30
2015,07,23,03,39,12.30
2015,07,23,03,40,12.30
2015,07,23,03,41,12.30
2015,07,23,03,42,12.30
2015,07,23,03,43,12.30
2015,07,23,03,44,12.30
2015,07,23,03,45,12.30
2015,07,23,03,46,12.30
2015,07,23,03,47,12.30
2015,07,23,03,48,12.20
2015,07,23,03,49,12.20
2015,07,23,03,50,12.20
2015,07,23,03,51,12.20
2015,07,23,03,52,12.20
2015,07,23,03,53,12.20
2015,07,23,03,54,12.20
2015,07,23,03,55,12.20
2015,07,23,03,56,12.20
2015,07,23,03,57,12.20
2015,07,23,03,58,12.10
2015,07,23,03,59,12.20
2015,07,23,04,00,12.10
2015,07,23,04,01,12.10
2015,07,23,04,02,12.20
2015,07,23,05,02,12.20
2015,07,23,05,03,12.10
2015,07,23,05,04,12.10
2015,07,23,05,05,12.10
2015,07,23,05,06,12.10
2015,07,23,05,07,12.10
2015,07,23,05,08,12.10
2015,07,23,05,09,12.10
2015,07,23,05,10,12.10
2015,07,23,05,11,12.10
2015,07,23,05,12,12.10
2015,07,23,05,13,12.10
2015,07,23,05,14,12.10
2015,07,23,05,15,12.10
2015,07,23,05,16,12.10
2015,07,23,05,17,12.10
2015,07,23,05,18,12.10
2015,07,23,05,19,12.10
2015,07,23,05,20,12.10
2015,07,23,05,21,12.10
2015,07,23,05,22,12.10
2015,07,23,05,23,12.10
2015,07,23,05,24,12.10
2015,07,23,05,25,12.10
2015,07,23,05,26,12.10
2015,07,23,05,27,12.10
2015,07,23,05,28,12.10
2015,07,23,05,29,12.00
2015,07,23,05,30,12.00
2015,07,23,05,31,12.00
2015,07,23,05,32,11.90
2015,07,23,05,33,11.90
2015,07,23,05,34,11.90
2015,07,23,05,35,11.80
2015,07,23,05,36,11.80
2015,07,23,05,37,11.80
2015,07,23,05,38,11.80
2015,07,23,05,39,11.80
2015,07,23,05,40,11.80
2015,07,23,05,41,11.80
2015,07,23,05,42,11.70
2015,07,23,05,43,11.70
2015,07,23,05,44,11.70
2015,07,23,05,45,11.70
2015,07,23,05,46,11.70
2015,07,23,05,47,11.60
2015,07,23,05,48,11.60
2015,07,23,05,49,11.60
2015,07,23,05,50,11.60
2015,07,23,05,51,11.60
2015,07,23,05,52,11.50
2015,07,23,05,53,11.50
2015,07,23,05,54,11.50
2015,07,23,05,55,11.50
2015,07,23,05,56,11.40
2015,07,23,05,57,11.40
2015,07,23,05,58,11.40
2015,07,23,05,59,11.40
2015,07,23,06,00,11.40
2015,07,23,06,01,11.30
2015,07,23,06,02,11.30
2015,07,23,06,03,11.30
2015,07,23,06,04,11.30
2015,07,23,06,05,11.30
2015,07,23,06,06,11.30
2015,07,23,06,07,11.30
2015,07,23,06,08,11.30
2015,07,23,06,09,11.30
2015,07,23,06,10,11.30
2015,07,23,06,11,11.30
2015,07,23,06,12,11.30
2015,07,23,06,13,11.30
2015,07,23,06,14,11.30
2015,07,23,06,15,11.30
2015,07,23,06,16,11.30
2015,07,23,06,17,11.30
2015,07,23,06,18,11.30
2015,07,23,06,19,11.40
2015,07,23,06,20,11.40
2015,07,23,06,21,11.40
2015,07,23,06,22,11.50
2015,07,23,06,23,11.50
2015,07,23,06,24,11.60
2015,07,23,06,25,11.60
2015,07,23,06,26,11.60
2015,07,23,06,27,11.60
2015,07,23,06,28,11.70
2015,07,23,06,29,11.70
2015,07,23,06,30,11.80
2015,07,23,06,31,11.80
2015,07,23,06,32,11.90
2015,07,23,06,33,12.00
2015,07,23,06,34,12.20
2015,07,23,06,35,12.30
2015,07,23,06,36,12.30
2015,07,23,06,37,12.40
2015,07,23,06,38,12.40
2015,07,23,06,39,12.50
2015,07,23,06,40,12.50
2015,07,23,06,41,12.40
2015,07,23,06,42,12.40
2015,07,23,06,43,12.40
2015,07,23,06,44,12.40
2015,07,23,06,45,12.40
2015,07,23,06,46,12.50
2015,07,23,06,47,12.50
2015,07,23,06,48,12.60
2015,07,23,06,49,12.70
2015,07,23,06,50,12.80
2015,07,23,06,51,12.80
2015,07,23,06,52,12.90
2015,07,23,06,53,13.00
2015,07,23,06,54,13.00
2015,07,23,06,55,13.10
2015,07,23,06,56,13.20
2015,07,23,06,57,13.20
2015,07,23,06,58,13.30
2015,07,23,06,59,13.40
2015,07,23,07,00,13.40
2015,07,23,07,01,13.50
2015,07,23,07,02,13.50
2015,07,23,07,03,13.60
2015,07,23,07,04,13.60
2015,07,23,07,05,13.70
2015,07,23,07,06,13.70
2015,07,23,07,07,13.80
2015,07,23,07,08,13.80
2015,07,23,07,09,14.00
2015,07,23,07,10,14.10
2015,07,23,07,11,14.10
2015,07,23,07,12,14.20
2015,07,23,07,13,14.30
2015,07,23,07,14,14.40
2015,07,23,07,15,14.40
2015,07,23,07,16,14.50
2015,07,23,07,17,14.50
2015,07,23,07,18,14.60
2015,07,23,07,19,14.60
2015,07,23,07,20,14.60
2015,07,23,07,21,14.60
2015,07,23,07,22,14.70
2015,07,23,07,23,14.70
2015,07,23,07,24,14.70
2015,07,23,07,25,14.70
2015,07,23,07,26,14.80
2015,07,23,07,27,14.80
2015,07,23,07,28,14.80
2015,07,23,07,29,14.80
2015,07,23,07,30,14.80
2015,07,23,07,31,14.80
2015,07,23,07,32,14.90
2015,07,23,07,33,14.90
2015,07,23,07,34,14.90
2015,07,23,07,35,15.00
2015,07,23,07,36,15.00
2015,07,23,07,37,15.00
2015,07,23,07,38,15.10
2015,07,23,07,39,15.10
2015,07,23,07,40,15.10
2015,07,23,07,41,15.10
2015,07,23,07,42,15.10
2015,07,23,07,43,15.20
2015,07,23,07,44,15.20
2015,07,23,07,45,15.20
2015,07,23,07,46,15.20
2015,07,23,07,47,15.20
2015,07,23,07,48,15.30
2015,07,23,07,49,15.30
2015,07,23,07,50,15.30
2015,07,23,07,51,15.40
2015,07,23,07,52,15.40
2015,07,23,07,53,15.50
2015,07,23,07,54,15.50
2015,07,23,07,55,15.50
2015,07,23,07,56,15.60
2015,07,23,07,57,15.60
2015,07,23,07,58,15.70
2015,07,23,07,59,15.70
2015,07,23,08,00,15.80
2015,07,23,08,01,15.90
2015,07,23,08,02,15.90
2015,07,23,08,03,15.90
2015,07,23,08,04,16.00
2015,07,23,08,05,16.00
2015,07,23,08,06,16.00
2015,07,23,08,07,16.10
2015,07,23,08,08,16.10
2015,07,23,08,09,16.20
2015,07,23,08,10,16.20
2015,07,23,08,11,16.20
2015,07,23,08,12,16.10
2015,07,23,08,13,16.00
2015,07,23,08,14,15.90
2015,07,23,08,15,15.90
2015,07,23,08,16,15.80
2015,07,23,08,17,15.80
2015,07,23,08,18,15.80
2015,07,23,08,19,15.80
2015,07,23,08,20,15.80
2015,07,23,08,21,15.80
2015,07,23,08,22,15.80
2015,07,23,08,23,15.90
2015,07,23,08,24,15.90
2015,07,23,08,25,16.00
2015,07,23,08,26,16.00
2015,07,23,08,27,16.00
2015,07,23,08,28,16.10
2015,07,23,08,29,16.10
2015,07,23,08,30,16.10
2015,07,23,08,31,16.20
2015,07,23,08,32,16.20
2015,07,23,08,33,16.20
2015,07,23,08,34,16.30
2015,07,23,08,35,16.40
2015,07,23,08,36,16.40
2015,07,23,08,37,16.50
2015,07,23,08,38,16.60
2015,07,23,08,39,16.70
2015,07,23,08,40,16.80
2015,07,23,08,41,16.80
2015,07,23,08,42,16.90
2015,07,23,08,43,16.90
2015,07,23,08,44,16.90
2015,07,23,08,45,17.00
2015,07,23,08,46,17.00
2015,07,23,08,47,17.10
2015,07,23,08,48,17.10
2015,07,23,08,49,17.10
2015,07,23,08,50,17.10
2015,07,23,08,51,17.20
2015,07,23,08,52,17.20
2015,07,23,08,53,17.20
2015,07,23,08,54,17.10
2015,07,23,08,55,17.00
2015,07,23,08,56,17.00
2015,07,23,08,57,16.90
2015,07,23,08,58,16.80
2015,07,23,08,59,16.80
2015,07,23,09,00,16.70
2015,07,23,09,01,16.70
2015,07,23,09,02,16.80
2015,07,23,09,03,16.80
2015,07,23,09,04,16.80
2015,07,23,09,05,16.80
2015,07,23,09,06,16.80
2015,07,23,09,07,16.90
2015,07,23,09,08,17.10
2015,07,23,09,09,17.20
2015,07,23,09,10,17.30
2015,07,23,09,11,17.40
2015,07,23,09,12,17.50
2015,07,23,09,13,17.50
2015,07,23,09,14,17.50
2015,07,23,09,15,17.40
2015,07,23,09,16,17.40
2015,07,23,09,17,17.30
2015,07,23,09,18,17.30
2015,07,23,09,19,17.30
2015,07,23,09,20,17.20
2015,07,23,09,21,17.10
2015,07,23,09,22,17.10
2015,07,23,09,23,17.10
2015,07,23,09,24,17.10
2015,07,23,09,25,17.20
2015,07,23,09,26,17.20
2015,07,23,09,27,17.20
2015,07,23,09,28,17.30
2015,07,23,09,29,17.40
2015,07,23,09,30,17.50
2015,07,23,09,31,17.50
2015,07,23,09,32,17.50
2015,07,23,09,33,17.40
2015,07,23,09,34,17.40
2015,07,23,09,35,17.30
2015,07,23,09,36,17.30
2015,07,23,09,37,17.30
2015,07,23,09,38,17.40
2015,07,23,09,39,17.40
2015,07,23,09,40,17.40
2015,07,23,09,41,17.40
2015,07,23,09,42,17.40
2015,07,23,09,43,17.40
2015,07,23,09,44,17.50
2015,07,23,09,45,17.60
2015,07,23,09,46,17.60
2015,07,23,09,47,17.80
2015,07,23,09,48,17.80
2015,07,23,09,49,17.90
2015,07,23,09,50,17.90
2015,07,23,09,51,17.90
2015,07,23,09,52,17.80
2015,07,23,09,53,17.80
2015,07,23,09,54,17.80
2015,07,23,09,55,17.90
2015,07,23,09,56,18.00
2015,07,23,09,57,18.00
2015,07,23,09,58,18.10
2015,07,23,09,59,18.00
2015,07,23,10,00,18.00
2015,07,23,10,01,18.00
2015,07,23,10,02,18.10
2015,07,23,10,03,18.10
2015,07,23,10,04,18.20
2015,07,23,10,05,18.30
2015,07,23,10,06,18.30
2015,07,23,10,07,18.40
2015,07,23,10,08,18.40
2015,07,23,10,09,18.40
2015,07,23,10,10,18.50
2015,07,23,10,11,18.50
2015,07,23,10,12,18.60
2015,07,23,10,13,18.70
2015,07,23,10,14,18.70
2015,07,23,10,15,18.70
2015,07,23,10,16,18.60
2015,07,23,10,17,18.60
2015,07,23,10,18,18.60
2015,07,23,10,19,18.70
2015,07,23,10,20,18.70
2015,07,23,10,21,18.70
2015,07,23,10,22,18.70
2015,07,23,10,23,18.80
2015,07,23,10,24,18.80
2015,07,23,10,25,18.80
2015,07,23,10,26,18.90
2015,07,23,10,27,18.90
2015,07,23,10,28,19.00
2015,07,23,10,29,19.00
2015,07,23,10,30,19.00
2015,07,23,10,31,18.90
2015,07,23,10,32,18.80
2015,07,23,10,33,18.70
2015,07,23,10,34,18.70
2015,07,23,10,35,18.60
2015,07,23,10,36,18.60
2015,07,23,10,37,18.60
2015,07,23,10,38,18.70
2015,07,23,10,39,18.70
2015,07,23,10,40,18.80
2015,07,23,10,41,18.80
2015,07,23,10,42,18.80
2015,07,23,10,43,18.80
2015,07,23,10,44,18.80
2015,07,23,10,45,18.90
2015,07,23,10,46,18.90
2015,07,23,10,47,18.90
2015,07,23,10,48,18.90
2015,07,23,10,49,19.00
2015,07,23,10,50,19.00
2015,07,23,10,51,19.00
2015,07,23,10,52,19.10
2015,07,23,10,53,19.10
2015,07,23,10,54,19.10
2015,07,23,10,55,19.10
2015,07,23,10,56,19.10
2015,07,23,10,57,19.10
2015,07,23,10,58,19.10
2015,07,23,10,59,19.00
2015,07,23,11,00,19.00
2015,07,23,11,01,19.00
2015,07,23,11,02,19.00
2015,07,23,11,03,19.00
2015,07,23,11,04,19.00
2015,07,23,11,05,18.90
2015,07,23,11,06,18.90
2015,07,23,11,07,18.90
2015,07,23,11,08,18.90
2015,07,23,11,09,18.90
2015,07,23,11,10,18.90
2015,07,23,11,11,18.90
2015,07,23,11,12,18.90
2015,07,23,11,13,18.90
2015,07,23,11,14,19.00
2015,07,23,11,15,19.00
2015,07,23,11,16,19.00
2015,07,23,11,17,18.90
2015,07,23,11,18,18.90
2015,07,23,11,19,18.90
2015,07,23,11,20,18.80
2015,07,23,11,21,18.80
2015,07,23,11,22,18.80
2015,07,23,11,23,18.80
2015,07,23,11,24,18.80
2015,07,23,11,25,18.80
2015,07,23,11,26,18.80
2015,07,23,11,27,18.80
2015,07,23,11,28,18.80
2015,07,23,11,29,18.70
2015,07,23,11,30,18.70
2015,07,23,11,31,18.70
2015,07,23,11,32,18.70
2015,07,23,11,33,18.80
2015,07,23,11,34,18.80
2015,07,23,11,35,18.80
2015,07,23,11,36,18.80
2015,07,23,11,37,18.80
2015,07,23,11,38,18.80
2015,07,23,11,39,18.80
2015,07,23,11,40,18.80
2015,07,23,11,41,18.80
2015,07,23,11,42,18.90
2015,07,23,11,43,19.00
2015,07,23,11,44,19.00
2015,07,23,11,45,19.20
2015,07,23,11,46,19.30
2015,07,23,11,47,19.30
2015,07,23,11,48,19.20
2015,07,23,11,49,19.20
2015,07,23,11,50,19.10
2015,07,23,11,51,19.10
2015,07,23,11,52,19.10
2015,07,23,11,53,19.10
2015,07,23,11,54,19.00
2015,07,23,11,55,19.00
2015,07,23,11,56,18.90
2015,07,23,11,57,18.90
2015,07,23,11,58,18.90
2015,07,23,11,59,18.90
2015,07,23,12,00,18.90
2015,07,23,12,01,19.00
2015,07,23,12,02,19.00
2015,07,23,12,03,19.00
2015,07,23,12,04,19.00
2015,07,23,12,05,19.10
2015,07,23,12,06,19.10
2015,07,23,12,07,19.20
2015,07,23,12,08,19.20
2015,07,23,12,09,19.20
2015,07,23,12,10,19.30
2015,07,23,12,11,19.50
2015,07,23,12,12,19.60
2015,07,23,12,13,19.70
2015,07,23,12,14,19.70
2015,07,23,12,15,19.80
2015,07,23,12,16,19.80
2015,07,23,12,17,19.90
2015,07,23,12,18,19.90
2015,07,23,12,19,20.00
2015,07,23,12,20,20.10
2015,07,23,12,21,20.10
2015,07,23,12,22,20.10
2015,07,23,12,23,20.10
2015,07,23,12,24,20.20
2015,07,23,12,25,20.30
2015,07,23,12,26,20.30
2015,07,23,12,27,20.40
2015,07,23,12,28,20.40
2015,07,23,12,29,20.40
2015,07,23,12,30,20.40
2015,07,23,12,31,20.30
2015,07,23,12,32,20.30
2015,07,23,12,33,20.30
2015,07,23,12,34,20.30
2015,07,23,12,35,20.40
2015,07,23,12,36,20.40
2015,07,23,12,37,20.40
2015,07,23,12,38,20.40
2015,07,23,12,39,20.40
2015,07,23,12,40,20.50
2015,07,23,12,41,20.50
2015,07,23,12,42,20.60
2015,07,23,12,43,20.60
2015,07,23,12,44,20.70
2015,07,23,12,45,20.80
2015,07,23,12,46,20.90
2015,07,23,12,47,21.10
2015,07,23,12,48,21.20
2015,07,23,12,49,21.30
2015,07,23,12,50,21.30
2015,07,23,12,51,21.30
2015,07,23,12,52,21.30
2015,07,23,12,53,21.40
2015,07,23,12,54,21.40
2015,07,23,12,55,21.40
2015,07,23,12,56,21.30
2015,07,23,12,57,21.20
2015,07,23,12,58,21.20
2015,07,23,12,59,21.10
2015,07,23,13,00,21.10
2015,07,23,13,01,21.10
2015,07,23,13,02,21.10
2015,07,23,13,03,21.10
2015,07,23,13,04,21.10
2015,07,23,13,05,21.10
2015,07,23,13,06,21.10
2015,07,23,13,07,21.10
2015,07,23,13,08,21.10
2015,07,23,13,09,21.10
2015,07,23,13,10,21.10
2015,07,23,13,11,21.10
2015,07,23,13,12,21.20
2015,07,23,13,13,21.20
2015,07,23,13,14,21.30
2015,07,23,13,15,21.30
2015,07,23,13,16,21.30
2015,07,23,13,17,21.30
2015,07,23,13,18,21.30
2015,07,23,13,19,21.20
2015,07,23,13,20,21.10
2015,07,23,13,21,21.00
2015,07,23,13,22,21.00
2015,07,23,13,23,20.90
2015,07,23,13,24,20.90
2015,07,23,13,25,20.90
2015,07,23,13,26,20.90
2015,07,23,13,27,21.00
2015,07,23,13,28,21.00
2015,07,23,13,29,21.00
2015,07,23,13,30,21.00
2015,07,23,13,31,20.90
2015,07,23,13,32,20.80
2015,07,23,13,33,20.70
2015,07,23,13,34,20.70
2015,07,23,13,35,20.70
2015,07,23,13,36,20.60
2015,07,23,13,37,20.50
2015,07,23,13,38,20.40
2015,07,23,13,39,20.30
2015,07,23,13,40,20.40
2015,07,23,13,41,20.40
2015,07,23,13,42,20.40
2015,07,23,13,43,20.40
2015,07,23,13,44,20.50
2015,07,23,13,45,20.50
2015,07,23,13,46,20.60
2015,07,23,13,47,20.60
2015,07,23,13,48,20.60
2015,07,23,13,49,20.70
2015,07,23,13,50,20.80
2015,07,23,13,51,20.80
2015,07,23,13,52,20.80
2015,07,23,13,53,20.80
2015,07,23,13,54,20.80
2015,07,23,13,55,20.90
2015,07,23,13,56,21.00
2015,07,23,13,57,21.00
2015,07,23,13,58,21.10
2015,07,23,13,59,21.10
2015,07,23,14,00,21.10
2015,07,23,14,01,21.00
2015,07,23,14,02,20.90
2015,07,23,14,03,20.90
2015,07,23,14,04,20.90
2015,07,23,14,05,20.90
2015,07,23,14,06,21.00
2015,07,23,14,07,21.10
2015,07,23,14,08,21.20
2015,07,23,14,09,21.20
2015,07,23,14,10,21.10
2015,07,23,14,11,21.00
2015,07,23,14,12,21.00
2015,07,23,14,13,21.00
2015,07,23,14,14,21.00
2015,07,23,14,15,21.00
2015,07,23,14,16,20.90
2015,07,23,14,17,20.90
2015,07,23,14,18,20.70
2015,07,23,14,19,20.60
2015,07,23,14,20,20.60
2015,07,23,14,21,20.50
2015,07,23,14,22,20.50
2015,07,23,14,23,20.40
2015,07,23,14,24,20.40
2015,07,23,14,25,20.40
2015,07,23,14,26,20.30
2015,07,23,14,27,20.30
2015,07,23,14,28,20.30
2015,07,23,14,29,20.40
2015,07,23,14,30,20.40
2015,07,23,14,31,20.40
2015,07,23,14,32,20.40
2015,07,23,14,33,20.30
2015,07,23,14,34,20.30
2015,07,23,14,35,20.20
2015,07,23,14,36,20.20
2015,07,23,14,37,20.30
2015,07,23,14,38,20.30
2015,07,23,14,39,20.40
2015,07,23,14,40,20.50
2015,07,23,14,41,20.50
2015,07,23,14,42,20.50
2015,07,23,14,43,20.60
2015,07,23,14,44,20.50
2015,07,23,14,45,20.50
2015,07,23,14,46,20.60
2015,07,23,14,47,20.60
2015,07,23,14,48,20.60
2015,07,23,14,49,20.60
2015,07,23,14,50,20.70
2015,07,23,14,51,20.80
2015,07,23,14,52,20.90
2015,07,23,14,53,21.00
2015,07,23,14,54,21.20
2015,07,23,14,55,21.20
2015,07,23,14,56,21.00
2015,07,23,14,57,21.00
2015,07,23,14,58,20.90
2015,07,23,14,59,20.90
2015,07,23,15,00,20.80
2015,07,23,15,01,20.80
2015,07,23,15,02,20.80
2015,07,23,15,03,20.80
2015,07,23,15,04,20.90
2015,07,23,15,05,20.90
2015,07,23,15,06,20.90
2015,07,23,15,07,20.90
2015,07,23,15,08,20.90
2015,07,23,15,09,21.00
2015,07,23,15,10,21.10
2015,07,23,15,11,21.10
2015,07,23,15,12,21.00
2015,07,23,15,13,21.00
2015,07,23,15,14,21.10
2015,07,23,15,15,21.10
2015,07,23,15,16,21.20
2015,07,23,15,17,21.30
2015,07,23,15,18,21.30
2015,07,23,15,19,21.20
2015,07,23,15,20,21.00
2015,07,23,15,21,20.90
2015,07,23,15,22,20.90
2015,07,23,15,23,20.80
2015,07,23,15,24,20.80
2015,07,23,15,25,20.80
2015,07,23,15,26,20.80
2015,07,23,15,27,20.80
2015,07,23,15,28,20.80
2015,07,23,15,29,20.80
2015,07,23,15,30,20.80
2015,07,23,15,31,20.90
2015,07,23,15,32,20.90
2015,07,23,15,33,20.90
2015,07,23,15,34,20.80
2015,07,23,15,35,20.80
2015,07,23,15,36,20.80
2015,07,23,15,37,20.80
2015,07,23,15,38,20.80
2015,07,23,15,39,20.80
2015,07,23,15,40,20.80
2015,07,23,15,41,21.00
2015,07,23,15,42,21.10
2015,07,23,15,43,21.20
2015,07,23,15,44,21.20
2015,07,23,15,45,21.30
2015,07,23,15,46,21.30
2015,07,23,15,47,21.20
2015,07,23,15,48,21.20
2015,07,23,15,49,21.20
2015,07,23,15,50,21.20
2015,07,23,15,51,21.20
2015,07,23,15,52,21.20
2015,07,23,15,53,21.20
2015,07,23,15,54,21.10
2015,07,23,15,55,21.10
2015,07,23,15,56,21.20
2015,07,23,15,57,21.20
2015,07,23,15,58,21.30
2015,07,23,15,59,21.30
2015,07,23,16,00,21.30
2015,07,23,16,01,21.30
2015,07,23,16,02,21.30
2015,07,23,16,03,21.30
2015,07,23,16,04,21.30
2015,07,23,16,05,21.30
2015,07,23,16,06,21.20
2015,07,23,16,07,21.20
2015,07,23,16,08,21.10
2015,07,23,16,09,21.10
2015,07,23,16,10,21.00
2015,07,23,16,11,20.90
2015,07,23,16,12,20.90
2015,07,23,16,13,20.90
2015,07,23,16,14,20.90
2015,07,23,16,15,20.90
2015,07,23,16,16,20.80
2015,07,23,16,17,20.80
2015,07,23,16,18,20.80
2015,07,23,16,19,20.80
2015,07,23,16,20,20.80
2015,07,23,16,21,20.90
2015,07,23,16,22,21.00
2015,07,23,16,23,21.10
2015,07,23,16,24,21.10
2015,07,23,16,25,21.00
2015,07,23,16,26,21.00
2015,07,23,16,27,21.00
2015,07,23,16,28,20.90
2015,07,23,16,29,21.00
2015,07,23,16,30,21.00
2015,07,23,16,31,21.00
2015,07,23,16,32,21.00
2015,07,23,16,33,21.00
2015,07,23,16,34,21.10
2015,07,23,16,35,21.10
2015,07,23,16,36,21.10
2015,07,23,16,37,21.20
2015,07,23,16,38,21.20
2015,07,23,16,39,21.20
2015,07,23,16,40,21.30
2015,07,23,16,41,21.30
2015,07,23,16,42,21.40
2015,07,23,16,43,21.40
2015,07,23,16,44,21.40
2015,07,23,16,45,21.50
2015,07,23,16,46,21.50
2015,07,23,16,47,21.60
2015,07,23,16,48,21.60
2015,07,23,16,49,21.60
2015,07,23,16,50,21.60
2015,07,23,16,51,21.60
2015,07,23,16,52,21.60
2015,07,23,16,53,21.60
2015,07,23,16,54,21.50
2015,07,23,16,55,21.40
2015,07,23,16,56,21.30
2015,07,23,16,57,21.30
2015,07,23,16,58,21.20
2015,07,23,16,59,21.10
2015,07,23,17,00,21.00
2015,07,23,17,01,20.90
2015,07,23,17,02,20.90
2015,07,23,17,03,20.90
2015,07,23,17,04,20.90
2015,07,23,17,05,20.90
2015,07,23,17,06,20.90
2015,07,23,17,07,20.90
2015,07,23,17,08,20.90
2015,07,23,17,09,20.80
2015,07,23,17,10,20.90
2015,07,23,17,11,20.90
2015,07,23,17,12,20.90
2015,07,23,17,13,20.80
2015,07,23,17,14,20.80
2015,07,23,17,15,20.70
2015,07,23,17,16,20.60
2015,07,23,17,17,20.50
2015,07,23,17,18,20.50
2015,07,23,17,19,20.40
2015,07,23,17,20,20.40
2015,07,23,17,21,20.40
2015,07,23,17,22,20.40
2015,07,23,17,23,20.40
2015,07,23,17,24,20.30
2015,07,23,17,25,20.30
2015,07,23,17,26,20.20
2015,07,23,17,27,20.30
2015,07,23,17,28,20.30
2015,07,23,17,29,20.30
2015,07,23,17,30,20.30
2015,07,23,17,31,20.30
2015,07,23,17,32,20.30
2015,07,23,17,33,20.30
2015,07,23,17,34,20.30
2015,07,23,17,35,20.20
2015,07,23,17,36,20.20
2015,07,23,17,37,20.10
2015,07,23,17,38,20.00
2015,07,23,17,39,20.00
2015,07,23,17,40,19.90
2015,07,23,17,41,19.90
2015,07,23,17,42,19.80
2015,07,23,17,43,19.80
2015,07,23,17,44,19.90
2015,07,23,17,45,19.90
2015,07,23,17,46,19.90
2015,07,23,17,47,19.90
2015,07,23,17,48,19.90
2015,07,23,17,49,19.90
2015,07,23,17,50,19.90
2015,07,23,17,51,19.80
2015,07,23,17,52,19.90
2015,07,23,17,53,19.90
2015,07,23,17,54,19.90
2015,07,23,17,55,20.00
2015,07,23,17,56,20.00
2015,07,23,17,57,20.00
2015,07,23,17,58,20.00
2015,07,23,17,59,20.00
2015,07,23,18,00,19.90
2015,07,23,18,01,19.90
2015,07,23,18,02,19.80
2015,07,23,18,03,19.80
2015,07,23,18,04,19.80
2015,07,23,18,05,19.80
2015,07,23,18,06,19.70
2015,07,23,18,07,19.70
2015,07,23,18,08,19.70
2015,07,23,18,09,19.70
2015,07,23,18,10,19.70
2015,07,23,18,11,19.80
2015,07,23,18,12,19.80
2015,07,23,18,13,19.80
2015,07,23,18,14,19.80
2015,07,23,18,15,19.80
2015,07,23,18,16,19.80
2015,07,23,18,17,19.70
2015,07,23,18,18,19.70